Location: WHS+Essen
(51.3947°N, 6.9794°E)
Time: 19:49:13
(UTC+02:00)

ISS - Pass Details

Date: 22 March 2019
Orbit: 408 x 410 km, 51.6° (Epoch: 25 April)

Event Time Altitude Azimuth Distance (km) Brightness Sun altitude
Rises 19:31:38 0° 192° (SSW) 2,324 0.1 -7.6°
Reaches altitude 10° 19:34:55 10° 157° (SSE) 1,468 -1.3 -8.1°
Maximum altitude 19:36:00 11° 137° (SE) 1,395 -1.6 -8.3°
Enters shadow 19:36:54 10° 121° (ESE) 1,448 -1.6 -8.4°
